Location: Unspecified
(32.5099°N, 80.0190°W)
Time: 23:45:17
(UTC-04:00)

CZ-3 Stage 3 - Visible Passes

Search period start: 31 July 2014 00:00
Search period end: 10 August 2014 00:00
Orbit: 420 x 34832 km, 30.6° (Epoch: 30 July)

Date Brightness Start Highest point End Pass type
(mag) Time Alt. Az. Time Alt. Az. Time Alt. Az.
31 Jul 5.2 12:59:20 10° WSW 13:33:27 65° S 13:38:20 10° E visible
01 Aug 7.4 01:30:46 13° S 09:44:24 43° SSE 10:03:03 10° E visible
01 Aug 5.6 20:42:54 10° SW 20:46:37 14° S 20:53:53 10° SSE visible
02 Aug 9.5 03:14:01 10° SE 05:17:23 17° SE 06:06:03 10° ESE visible
04 Aug 7.5 01:29:47 13° S 09:44:03 45° SSE 10:01:38 10° E visible
04 Aug 5.7 20:41:55 10° SSW 20:45:27 13° S 20:51:47 10° SSE visible
05 Aug 9.4 02:53:57 10° SE 05:18:03 19° SE 06:08:22 10° ESE visible
07 Aug 7.6 01:27:56 13° S 09:43:30 47° SSE 10:00:07 10° E visible
07 Aug 5.9 20:41:09 10° SSW 20:44:18 12° S 20:49:20 10° SSE visible
08 Aug 9.4 02:34:54 10° SE 05:18:37 22° SE 06:09:46 10° ESE visible
